Weather History for Council Bluffs, IA

Change the Weather History Date:

Saturday, February 23, 2013

  Actual Average Record
Temperature  
Mean Temperature 20 °F -  
Max Temperature 33 °F 36 °F 69 °F (2002)
Min Temperature 6 °F 22 °F 6 °F (2013)
Degree Days  
Heating Degree Days 46    
Moisture  
Dew Point 15 °F    
Average Humidity 80    
Maximum Humidity 92    
Minimum Humidity 64    
Precipitation  
Precipitation 0.00 in - - ()
Sea Level Pressure  
Sea Level Pressure 29.90 in    
Wind  
Wind Speed 8 mph (SSW)    
Max Wind Speed 15 mph    
Max Gust Speed 21 mph    
Visibility 9 miles    
Events      
Averages and records for this station are not official NWS values.
T = Trace of Precipitation, MM = Missing Value Source: NWS Daily Summary

Daily Weather History Graph

Daily Weather History Graph

Search for Another Location

Airport:

Trip Planner

Search our weather history database for the weather conditions in past years. The results will help you decide how hot, cold, wet, or windy it might be!

Date:

Astronomy

Feb. 23, 2013 Rise Set
Actual Time 7:06 AM CST 6:07 PM CST
Civil Twilight 6:38 AM CST 6:35 PM CST
Nautical Twilight 6:06 AM CST 7:07 PM CST
Astronomical Twilight 5:34 AM CST 7:39 PM CST
Moon 4:17 PM CST (2/23) 5:30 AM CST (2/23)
Length of Visible Light 11h 56m
Length of Day
11h 01m
Waxing Gibbous, 95% of the Moon is Illuminated
Feb 23
Waxing Gibbous
Feb 25
Full
Mar 4
Last Quarter
Mar 11
New
Mar 19
First Quarter

Hourly Weather History & Observations

Time (CST) Temp. Windchill Dew Point Humidity Pressure Visibility Wind Dir Wind Speed Gust Speed Precip Events Conditions
12:15 AM 14.0 °F 6.5 °F 10.4 °F 86% 29.99 in 10.0 mi SW 4.6 mph - N/A   Clear
12:35 AM 14.0 °F 3.9 °F 10.4 °F 86% 29.98 in 9.0 mi SW 6.9 mph - N/A   Clear
12:55 AM 12.2 °F 0.7 °F 8.6 °F 85% 29.98 in 10.0 mi SW 8.1 mph - N/A   Clear
1:15 AM 12.2 °F 4.3 °F 8.6 °F 85% 29.98 in 9.0 mi SW 4.6 mph - N/A   Clear
1:35 AM 12.2 °F 2.9 °F 8.6 °F 85% 29.98 in 7.0 mi SW 5.8 mph - N/A   Clear
1:55 AM 10.4 °F 0.8 °F 8.6 °F 92% 29.98 in 8.0 mi SSW 5.8 mph - N/A   Clear
2:15 AM 12.2 °F 1.7 °F 8.6 °F 85% 29.98 in 9.0 mi SW 6.9 mph - N/A   Clear
2:35 AM 10.4 °F -0.4 °F 6.8 °F 85% 29.98 in 8.0 mi SW 6.9 mph - N/A   Clear
2:55 AM 10.4 °F 0.8 °F 8.6 °F 92% 29.97 in 7.0 mi SW 5.8 mph - N/A   Clear
3:15 AM 10.4 °F -0.4 °F 6.8 °F 85% 29.96 in 8.0 mi SW 6.9 mph - N/A   Partly Cloudy
3:35 AM 8.6 °F -1.3 °F 6.8 °F 92% 29.95 in 6.0 mi SW 5.8 mph - N/A   Clear
3:55 AM 10.4 °F 0.8 °F 6.8 °F 85% 29.95 in 6.0 mi SSW 5.8 mph - N/A   Clear
4:15 AM 8.6 °F -1.3 °F 6.8 °F 92% 29.95 in 6.0 mi SSW 5.8 mph - N/A   Clear
4:35 AM 10.4 °F -0.4 °F 6.8 °F 85% 29.94 in 7.0 mi SSW 6.9 mph - N/A   Clear
4:55 AM 8.6 °F -3.7 °F 6.8 °F 92% 29.94 in 6.0 mi SW 8.1 mph - N/A   Clear
5:15 AM 10.4 °F -2.4 °F 6.8 °F 85% 29.94 in 6.0 mi SSW 9.2 mph - N/A   Clear
5:35 AM 10.4 °F -1.5 °F 6.8 °F 85% 29.94 in 6.0 mi SSW 8.1 mph - N/A   Clear
6:15 AM 10.4 °F -1.5 °F 6.8 °F 85% 29.94 in 6.0 mi SW 8.1 mph - N/A   Scattered Clouds
6:35 AM 10.4 °F -1.5 °F 6.8 °F 85% 29.93 in 7.0 mi SSW 8.1 mph - N/A   Partly Cloudy
6:55 AM 10.4 °F -1.5 °F 6.8 °F 85% 29.93 in 7.0 mi SSW 8.1 mph - N/A   Clear
7:15 AM 10.4 °F 0.8 °F 6.8 °F 85% 29.92 in 4.0 mi SSW 5.8 mph - N/A   Clear
7:35 AM 10.4 °F 0.8 °F 6.8 °F 85% 29.92 in 3.0 mi SSW 5.8 mph - N/A   Clear
7:55 AM 10.4 °F 0.8 °F 6.8 °F 85% 29.92 in 5.0 mi SSW 5.8 mph - N/A   Clear
8:15 AM 6.8 °F -3.5 °F 5.0 °F 92% 29.92 in 5.0 mi South 5.8 mph - N/A   Clear
8:35 AM 8.6 °F -1.3 °F 5.0 °F 85% 29.92 in 5.0 mi South 5.8 mph - N/A   Clear
8:55 AM 10.4 °F -0.4 °F 6.8 °F 85% 29.92 in 6.0 mi South 6.9 mph - N/A   Clear
9:15 AM 10.4 °F -2.4 °F 8.6 °F 92% 29.92 in 6.0 mi South 9.2 mph - N/A   Clear
9:35 AM 10.4 °F 0.8 °F 8.6 °F 92% 29.92 in 7.0 mi SE 5.8 mph - N/A   Clear
9:55 AM 12.2 °F 1.7 °F 8.6 °F 85% 29.92 in 9.0 mi SSE 6.9 mph - N/A   Clear
10:15 AM 14.0 °F 5.1 °F 10.4 °F 86% 29.92 in 9.0 mi SSE 5.8 mph - N/A   Clear
10:35 AM 15.8 °F 7.2 °F 12.2 °F 86% 29.91 in 9.0 mi SSE 5.8 mph - N/A   Clear
10:55 AM 19.4 °F 9.5 °F 14.0 °F 80% 29.91 in 10.0 mi South 8.1 mph - N/A   Clear
11:15 AM 21.2 °F 10.9 °F 15.8 °F 80% 29.90 in 10.0 mi SSW 9.2 mph - N/A   Clear
11:35 AM 23.0 °F 13.1 °F 14.0 °F 68% 29.90 in 10.0 mi South 9.2 mph - N/A   Clear
11:55 AM 24.8 °F 15.3 °F 15.8 °F 69% 29.90 in 10.0 mi SSW 9.2 mph - N/A   Clear
12:15 PM 24.8 °F 14.0 °F 17.6 °F 74% 29.89 in 10.0 mi SSW 11.5 mph - N/A   Clear
12:35 PM 26.6 °F 14.7 °F 17.6 °F 69% 29.89 in 10.0 mi SSW 15.0 mph 20.7 mph N/A   Clear
12:55 PM 26.6 °F 15.7 °F 17.6 °F 69% 29.88 in 10.0 mi SSW 12.7 mph - N/A   Clear
1:15 PM 26.6 °F 14.7 °F 17.6 °F 69% 29.87 in 10.0 mi SSW 15.0 mph - N/A   Clear
1:35 PM 26.6 °F 16.2 °F 19.4 °F 74% 29.87 in 10.0 mi SSW 11.5 mph - N/A   Clear
1:55 PM 28.4 °F 17.0 °F 19.4 °F 69% 29.86 in 10.0 mi SSW 15.0 mph - N/A   Clear
2:15 PM 28.4 °F 19.1 °F 19.4 °F 69% 29.86 in 10.0 mi SSW 10.4 mph - N/A   Clear
2:35 PM 30.2 °F 20.2 °F 21.2 °F 69% 29.85 in 10.0 mi South 12.7 mph - N/A   Clear
2:55 PM 32.0 °F 23.0 °F 21.2 °F 64% 29.85 in 10.0 mi SSW 11.5 mph - N/A   Clear
3:15 PM 32.0 °F 22.1 °F 23.0 °F 69% 29.84 in 10.0 mi SSW 13.8 mph - N/A   Clear
3:35 PM 32.0 °F 22.5 °F 23.0 °F 69% 29.84 in 10.0 mi SSW 12.7 mph - N/A   Clear
3:55 PM 33.8 °F 25.8 °F 23.0 °F 65% 29.84 in 10.0 mi SSW 10.4 mph - N/A   Clear
4:15 PM 33.8 °F 24.8 °F 23.0 °F 65% 29.83 in 10.0 mi SSW 12.7 mph - N/A   Clear
4:35 PM 33.8 °F 25.8 °F 24.8 °F 70% 29.84 in 10.0 mi SSW 10.4 mph - N/A   Clear
4:55 PM 33.8 °F 24.8 °F 24.8 °F 70% 29.83 in 10.0 mi SSW 12.7 mph - N/A   Clear
5:15 PM 33.8 °F 26.4 °F 24.8 °F 70% 29.83 in 10.0 mi South 9.2 mph - N/A   Clear
5:35 PM 33.8 °F 26.4 °F 24.8 °F 70% 29.83 in 10.0 mi South 9.2 mph - N/A   Clear
5:55 PM 32.0 °F 23.6 °F 24.8 °F 75% 29.83 in 10.0 mi South 10.4 mph - N/A   Clear
6:15 PM 30.2 °F 21.3 °F 23.0 °F 75% 29.83 in 10.0 mi SSE 10.4 mph - N/A   Clear
6:55 PM 26.6 °F 17.5 °F 21.2 °F 80% 29.84 in 10.0 mi SSE 9.2 mph - N/A   Clear
7:15 PM 26.6 °F 17.5 °F 23.0 °F 86% 29.85 in 10.0 mi South 9.2 mph - N/A   Clear
7:35 PM 26.6 °F 16.8 °F 21.2 °F 80% 29.85 in 10.0 mi SSE 10.4 mph - N/A   Clear
7:55 PM 26.6 °F 19.1 °F 21.2 °F 80% 29.85 in 10.0 mi South 6.9 mph - N/A   Clear
8:15 PM 26.6 °F 16.8 °F 23.0 °F 86% 29.85 in 10.0 mi South 10.4 mph - N/A   Clear
8:35 PM 26.6 °F 17.5 °F 23.0 °F 86% 29.86 in 10.0 mi South 9.2 mph - N/A   Clear
8:55 PM 26.6 °F 17.5 °F 23.0 °F 86% 29.86 in 10.0 mi South 9.2 mph - N/A   Clear
9:15 PM 28.4 °F 20.4 °F 23.0 °F 80% 29.86 in 10.0 mi South 8.1 mph - N/A   Clear
9:35 PM 28.4 °F 19.7 °F 23.0 °F 80% 29.86 in 10.0 mi South 9.2 mph - N/A   Clear
10:35 PM 30.2 °F 21.9 °F 23.0 °F 75% 29.88 in 10.0 mi SSW 9.2 mph - N/A   Clear
10:55 PM 30.2 °F 20.8 °F 23.0 °F 75% 29.87 in 10.0 mi South 11.5 mph - N/A   Clear
11:15 PM 28.4 °F 20.4 °F 23.0 °F 80% 29.87 in 10.0 mi South 8.1 mph - N/A   Clear
11:35 PM 28.4 °F 21.2 °F 23.0 °F 80% 29.88 in 10.0 mi South 6.9 mph - N/A   Clear
11:55 PM 26.6 °F 19.1 °F 23.0 °F 86% 29.88 in 10.0 mi South 6.9 mph - N/A   Clear